Time,TemperatureF,DewpointF,PressureIn,WindDirection,WindDirectionDegrees,WindSpeedMPH,WindSpeedGustMPH,Humidity,HourlyPrecipIn,Conditions,Clouds,dailyrainin,SoftwareType,DateUTC
2013-12-07 00:03:00,45.5,39.4,30.06,North,0,0.0,-999.0,79,0.00,,,0.00,homie,2013-12-07 08:03:00,
2013-12-07 00:08:00,45.3,39.5,30.06,North,0,0.0,-999.0,80,0.00,,,0.00,homie,2013-12-07 08:08:00,
2013-12-07 00:13:00,45.1,39.6,30.06,North,0,0.0,-999.0,81,0.00,,,0.00,homie,2013-12-07 08:13:00,
2013-12-07 00:18:00,44.9,39.7,30.06,North,0,0.0,-999.0,82,0.00,,,0.00,homie,2013-12-07 08:18:00,
2013-12-07 00:23:00,45.0,39.8,30.06,North,0,0.0,-999.0,82,0.00,,,0.00,homie,2013-12-07 08:23:00,
2013-12-07 00:28:00,44.9,39.7,30.06,North,0,0.0,-999.0,82,0.00,,,0.00,homie,2013-12-07 08:28:00,
2013-12-07 00:33:00,44.8,39.6,30.05,North,0,0.0,-999.0,82,0.00,,,0.00,homie,2013-12-07 08:33:00,
2013-12-07 00:38:00,44.7,39.5,30.05,North,0,0.0,-999.0,82,0.00,,,0.00,homie,2013-12-07 08:38:00,
2013-12-07 00:43:00,44.5,39.3,30.05,North,0,0.0,-999.0,82,0.00,,,0.00,homie,2013-12-07 08:43:00,
2013-12-07 00:48:00,44.5,39.7,30.05,North,0,0.0,-999.0,83,0.00,,,0.00,homie,2013-12-07 08:48:00,
2013-12-07 00:53:00,44.3,39.5,30.05,North,0,0.0,-999.0,83,0.00,,,0.00,homie,2013-12-07 08:53:00,
2013-12-07 00:58:00,44.2,39.4,30.05,North,0,0.0,-999.0,83,0.00,,,0.00,homie,2013-12-07 08:58:00,
2013-12-07 01:03:00,43.9,38.8,30.05,North,0,0.0,-999.0,82,0.00,,,0.00,homie,2013-12-07 09:03:00,
2013-12-07 01:08:00,43.7,38.6,30.05,North,0,0.0,-999.0,82,0.00,,,0.00,homie,2013-12-07 09:08:00,
2013-12-07 01:13:00,43.5,38.7,30.05,North,0,0.0,-999.0,83,0.00,,,0.00,homie,2013-12-07 09:13:00,
2013-12-07 01:18:00,43.3,38.5,30.05,North,0,0.0,-999.0,83,0.00,,,0.00,homie,2013-12-07 09:18:00,
2013-12-07 01:23:00,43.1,38.6,30.05,North,0,0.0,-999.0,84,0.00,,,0.00,homie,2013-12-07 09:23:00,
2013-12-07 01:28:00,43.2,39.0,30.05,North,0,0.0,-999.0,85,0.00,,,0.00,homie,2013-12-07 09:28:00,
2013-12-07 01:33:00,43.1,38.9,30.05,North,0,0.0,-999.0,85,0.00,,,0.00,homie,2013-12-07 09:33:00,
2013-12-07 01:38:00,43.1,38.9,30.05,North,0,0.0,-999.0,85,0.00,,,0.00,homie,2013-12-07 09:38:00,
2013-12-07 01:43:00,43.1,38.6,30.06,North,0,0.0,-999.0,84,0.00,,,0.00,homie,2013-12-07 09:43:00,
2013-12-07 01:48:00,43.1,38.6,30.05,North,0,0.0,-999.0,84,0.00,,,0.00,homie,2013-12-07 09:48:00,
2013-12-07 01:53:00,43.2,38.7,30.05,North,0,0.0,-999.0,84,0.00,,,0.00,homie,2013-12-07 09:53:00,
2013-12-07 01:58:00,43.4,38.6,30.05,North,0,0.0,-999.0,83,0.00,,,0.00,homie,2013-12-07 09:58:00,
2013-12-07 02:03:00,43.4,38.6,30.05,North,0,0.0,-999.0,83,0.00,,,0.00,homie,2013-12-07 10:03:00,
2013-12-07 02:08:00,43.5,39.0,30.05,North,0,0.0,-999.0,84,0.00,,,0.00,homie,2013-12-07 10:08:00,
2013-12-07 02:13:00,43.8,39.0,30.05,North,0,0.0,-999.0,83,0.00,,,0.00,homie,2013-12-07 10:13:00,
2013-12-07 02:18:00,43.9,39.1,30.04,North,0,0.0,-999.0,83,0.00,,,0.00,homie,2013-12-07 10:18:00,
2013-12-07 02:23:00,44.3,39.5,30.04,North,0,0.0,-999.0,83,0.00,,,0.00,homie,2013-12-07 10:23:00,
2013-12-07 02:28:00,44.6,39.5,30.04,North,0,0.0,-999.0,82,0.00,,,0.00,homie,2013-12-07 10:28:00,
2013-12-07 02:33:00,44.9,39.7,30.04,North,0,0.0,-999.0,82,0.00,,,0.00,homie,2013-12-07 10:33:00,
2013-12-07 02:38:00,45.1,39.6,30.04,North,0,0.0,-999.0,81,0.00,,,0.00,homie,2013-12-07 10:38:00,
2013-12-07 02:43:00,45.2,39.7,30.04,North,0,0.0,-999.0,81,0.00,,,0.00,homie,2013-12-07 10:43:00,
2013-12-07 02:48:00,44.9,39.1,30.03,North,0,0.0,-999.0,80,0.00,,,0.00,homie,2013-12-07 10:48:00,
2013-12-07 02:53:00,44.7,39.2,30.03,North,0,0.0,-999.0,81,0.00,,,0.00,homie,2013-12-07 10:53:00,
2013-12-07 02:58:00,44.5,39.0,30.03,North,0,0.0,-999.0,81,0.00,,,0.00,homie,2013-12-07 10:58:00,
2013-12-07 03:03:00,44.4,39.2,30.03,North,0,0.0,-999.0,82,0.00,,,0.00,homie,2013-12-07 11:03:00,
2013-12-07 03:08:00,44.3,39.2,30.03,North,0,0.0,-999.0,82,0.00,,,0.00,homie,2013-12-07 11:08:00,
2013-12-07 03:13:00,44.3,39.2,30.03,North,0,0.0,-999.0,82,0.00,,,0.00,homie,2013-12-07 11:13:00,
2013-12-07 03:18:00,44.4,39.6,30.02,North,0,0.0,-999.0,83,0.00,,,0.00,homie,2013-12-07 11:18:00,
2013-12-07 03:23:00,44.8,39.6,30.03,North,0,0.0,-999.0,82,0.00,,,0.00,homie,2013-12-07 11:23:00,
2013-12-07 03:28:00,45.0,39.5,30.02,North,0,0.0,-999.0,81,0.00,,,0.00,homie,2013-12-07 11:28:00,
2013-12-07 03:33:00,45.1,39.6,30.02,North,0,0.0,-999.0,81,0.00,,,0.00,homie,2013-12-07 11:33:00,
2013-12-07 03:38:00,45.2,39.4,30.02,North,0,0.0,-999.0,80,0.00,,,0.00,homie,2013-12-07 11:38:00,
2013-12-07 03:43:00,45.4,39.3,30.02,North,0,0.0,-999.0,79,0.00,,,0.00,homie,2013-12-07 11:43:00,
2013-12-07 03:48:00,45.5,39.4,30.02,North,0,0.0,-999.0,79,0.00,,,0.00,homie,2013-12-07 11:48:00,
2013-12-07 03:53:00,45.5,39.0,30.01,North,0,0.0,-999.0,78,0.00,,,0.00,homie,2013-12-07 11:53:00,
2013-12-07 03:58:00,45.4,39.3,30.02,North,0,0.0,-999.0,79,0.00,,,0.00,homie,2013-12-07 11:58:00,
2013-12-07 04:03:00,45.2,39.1,30.02,North,0,0.0,-999.0,79,0.00,,,0.00,homie,2013-12-07 12:03:00,
2013-12-07 04:08:00,44.8,39.0,30.02,North,0,0.0,-999.0,80,0.00,,,0.00,homie,2013-12-07 12:08:00,
2013-12-07 04:13:00,44.5,39.0,30.02,North,0,0.0,-999.0,81,0.00,,,0.00,homie,2013-12-07 12:13:00,
2013-12-07 04:18:00,44.3,38.8,30.02,North,0,0.0,-999.0,81,0.00,,,0.00,homie,2013-12-07 12:18:00,
2013-12-07 04:23:00,44.2,39.1,30.02,North,0,0.0,-999.0,82,0.00,,,0.00,homie,2013-12-07 12:23:00,
2013-12-07 04:28:00,44.2,39.1,30.02,North,0,0.0,-999.0,82,0.00,,,0.00,homie,2013-12-07 12:28:00,
2013-12-07 04:33:00,44.1,38.7,30.02,North,0,0.0,-999.0,81,0.00,,,0.00,homie,2013-12-07 12:33:00,
2013-12-07 04:38:00,44.3,38.8,30.02,North,0,0.0,-999.0,81,0.00,,,0.00,homie,2013-12-07 12:38:00,
2013-12-07 04:43:00,44.5,39.0,30.02,North,0,0.0,-999.0,81,0.00,,,0.00,homie,2013-12-07 12:43:00,
2013-12-07 04:48:00,44.6,39.1,30.02,North,0,0.0,-999.0,81,0.00,,,0.00,homie,2013-12-07 12:48:00,
2013-12-07 04:53:00,44.6,39.1,30.02,North,0,0.0,-999.0,81,0.00,,,0.00,homie,2013-12-07 12:53:00,
2013-12-07 04:58:00,44.5,39.0,30.02,North,0,0.0,-999.0,81,0.00,,,0.00,homie,2013-12-07 12:58:00,
2013-12-07 05:03:00,44.3,39.2,30.01,North,0,0.0,-999.0,82,0.00,,,0.00,homie,2013-12-07 13:03:00,
2013-12-07 05:08:00,44.2,39.4,30.02,North,0,0.0,-999.0,83,0.00,,,0.00,homie,2013-12-07 13:08:00,
2013-12-07 05:13:00,44.1,39.3,30.02,North,0,0.0,-999.0,83,0.00,,,0.00,homie,2013-12-07 13:13:00,
2013-12-07 05:18:00,44.1,39.3,30.02,North,0,0.0,-999.0,83,0.00,,,0.00,homie,2013-12-07 13:18:00,
2013-12-07 05:23:00,44.4,39.2,30.02,North,0,0.0,-999.0,82,0.00,,,0.00,homie,2013-12-07 13:23:00,
2013-12-07 05:28:00,44.9,39.1,30.02,North,0,0.0,-999.0,80,0.00,,,0.00,homie,2013-12-07 13:28:00,
2013-12-07 05:33:00,45.0,39.2,30.02,North,0,0.0,-999.0,80,0.00,,,0.00,homie,2013-12-07 13:33:00,
2013-12-07 05:38:00,45.0,38.9,30.02,North,0,0.0,-999.0,79,0.00,,,0.00,homie,2013-12-07 13:38:00,
2013-12-07 05:43:00,45.0,38.9,30.03,North,0,0.0,-999.0,79,0.00,,,0.00,homie,2013-12-07 13:43:00,
2013-12-07 05:48:00,44.9,38.8,30.03,North,0,0.0,-999.0,79,0.00,,,0.00,homie,2013-12-07 13:48:00,
2013-12-07 05:53:00,45.1,38.7,30.02,North,0,0.0,-999.0,78,0.00,,,0.00,homie,2013-12-07 13:53:00,
2013-12-07 05:58:00,45.1,38.7,30.03,North,0,0.0,-999.0,78,0.00,,,0.00,homie,2013-12-07 13:58:00,
2013-12-07 06:03:00,44.9,38.5,30.03,North,0,0.0,-999.0,78,0.00,,,0.00,homie,2013-12-07 14:03:00,
2013-12-07 06:08:00,44.8,38.4,30.03,North,0,0.0,-999.0,78,0.00,,,0.00,homie,2013-12-07 14:08:00,
2013-12-07 06:13:00,44.8,38.7,30.03,North,0,0.0,-999.0,79,0.00,,,0.00,homie,2013-12-07 14:13:00,
2013-12-07 06:18:00,44.9,38.5,30.03,North,0,0.0,-999.0,78,0.00,,,0.00,homie,2013-12-07 14:18:00,
2013-12-07 06:23:00,44.9,38.8,30.03,North,0,0.0,-999.0,79,0.00,,,0.00,homie,2013-12-07 14:23:00,
2013-12-07 06:28:00,44.9,38.8,30.03,North,0,0.0,-999.0,79,0.00,,,0.00,homie,2013-12-07 14:28:00,
2013-12-07 06:33:00,45.1,39.0,30.04,North,0,0.0,-999.0,79,0.00,,,0.00,homie,2013-12-07 14:33:00,
2013-12-07 06:38:00,45.1,39.0,30.03,North,0,0.0,-999.0,79,0.00,,,0.00,homie,2013-12-07 14:38:00,
2013-12-07 06:43:00,45.1,39.0,30.03,North,0,0.0,-999.0,79,0.00,,,0.00,homie,2013-12-07 14:43:00,
2013-12-07 06:48:00,45.1,39.0,30.03,North,0,0.0,-999.0,79,0.00,,,0.00,homie,2013-12-07 14:48:00,
2013-12-07 06:53:00,45.1,39.0,30.03,North,0,0.0,-999.0,79,0.00,,,0.00,homie,2013-12-07 14:53:00,
2013-12-07 06:58:00,45.2,39.1,30.03,North,0,0.0,-999.0,79,0.00,,,0.00,homie,2013-12-07 14:58:00,
2013-12-07 07:03:00,45.2,39.1,30.03,North,0,0.0,-999.0,79,0.00,,,0.00,homie,2013-12-07 15:03:00,
2013-12-07 07:08:00,45.2,39.1,30.04,North,0,0.0,-999.0,79,0.00,,,0.00,homie,2013-12-07 15:08:00,
2013-12-07 07:13:00,45.2,39.4,30.04,North,0,0.0,-999.0,80,0.00,,,0.00,homie,2013-12-07 15:13:00,
2013-12-07 07:18:00,45.2,39.4,30.03,North,0,0.0,-999.0,80,0.00,,,0.00,homie,2013-12-07 15:18:00,
2013-12-07 07:23:00,45.2,39.4,30.03,North,0,0.0,-999.0,80,0.00,,,0.00,homie,2013-12-07 15:23:00,
2013-12-07 07:28:00,45.3,39.5,30.03,North,0,0.0,-999.0,80,0.00,,,0.00,homie,2013-12-07 15:28:00,
2013-12-07 07:33:00,45.5,39.7,30.03,North,0,0.0,-999.0,80,0.00,,,0.00,homie,2013-12-07 15:33:00,
2013-12-07 07:38:00,45.7,39.9,30.03,North,0,0.0,-999.0,80,0.00,,,0.00,homie,2013-12-07 15:38:00,
2013-12-07 07:43:00,45.9,40.4,30.03,North,0,0.0,-999.0,81,0.00,,,0.00,homie,2013-12-07 15:43:00,
2013-12-07 07:48:00,46.0,40.5,30.02,North,0,0.0,-999.0,81,0.00,,,0.00,homie,2013-12-07 15:48:00,
2013-12-07 07:53:00,46.0,40.5,30.03,North,0,0.0,-999.0,81,0.00,,,0.00,homie,2013-12-07 15:53:00,
2013-12-07 07:58:00,46.0,40.5,30.03,North,0,0.0,-999.0,81,0.00,,,0.00,homie,2013-12-07 15:58:00,
2013-12-07 08:03:00,46.1,40.6,30.03,North,0,0.0,-999.0,81,0.00,,,0.00,homie,2013-12-07 16:03:00,
2013-12-07 08:08:00,46.1,40.6,30.03,North,0,0.0,-999.0,81,0.00,,,0.00,homie,2013-12-07 16:08:00,
2013-12-07 08:13:00,46.3,40.8,30.02,North,0,0.0,-999.0,81,0.00,,,0.00,homie,2013-12-07 16:13:00,
2013-12-07 08:18:00,46.3,40.8,30.03,North,0,0.0,-999.0,81,0.00,,,0.00,homie,2013-12-07 16:18:00,
2013-12-07 08:23:00,46.4,40.9,30.03,North,0,0.0,-999.0,81,0.00,,,0.00,homie,2013-12-07 16:23:00,
2013-12-07 08:28:00,46.4,41.2,30.03,North,0,0.0,-999.0,82,0.00,,,0.00,homie,2013-12-07 16:28:00,
2013-12-07 08:35:00,46.4,40.9,30.03,North,0,0.0,-999.0,81,0.00,,,0.00,homie,2013-12-07 16:35:00,
2013-12-07 08:40:00,46.5,41.0,30.03,North,0,0.0,-999.0,81,0.00,,,0.00,homie,2013-12-07 16:40:00,
2013-12-07 08:45:00,46.5,41.0,30.03,North,0,0.0,-999.0,81,0.00,,,0.00,homie,2013-12-07 16:45:00,
2013-12-07 08:50:00,46.6,41.4,30.03,North,0,0.0,-999.0,82,0.00,,,0.00,homie,2013-12-07 16:50:00,
2013-12-07 08:55:00,46.7,41.5,30.04,North,0,0.0,-999.0,82,0.00,,,0.00,homie,2013-12-07 16:55:00,
2013-12-07 09:00:00,46.8,41.3,30.03,North,0,0.0,-999.0,81,0.00,,,0.00,homie,2013-12-07 17:00:00,
2013-12-07 09:05:00,46.9,41.4,30.03,North,0,0.0,-999.0,81,0.00,,,0.00,homie,2013-12-07 17:05:00,
2013-12-07 09:10:00,46.9,41.4,30.04,North,358,1.0,-999.0,81,0.00,,,0.00,homie,2013-12-07 17:10:00,
2013-12-07 09:15:00,46.9,41.7,30.04,North,0,0.0,-999.0,82,0.00,,,0.00,homie,2013-12-07 17:15:00,
2013-12-07 09:20:00,46.9,41.7,30.04,North,0,0.0,-999.0,82,0.00,,,0.00,homie,2013-12-07 17:20:00,
2013-12-07 09:25:00,46.9,42.3,30.04,North,0,0.0,-999.0,84,0.00,,,0.01,homie,2013-12-07 17:25:00,
2013-12-07 09:30:00,46.8,42.2,30.04,North,0,0.0,-999.0,84,0.12,,,0.02,homie,2013-12-07 17:30:00,
2013-12-07 09:35:00,46.5,42.2,30.05,North,0,0.0,-999.0,85,0.07,,,0.02,homie,2013-12-07 17:35:00,
2013-12-07 09:40:00,46.4,42.4,30.05,North,0,0.0,-999.0,86,0.05,,,0.03,homie,2013-12-07 17:40:00,
2013-12-07 09:45:00,46.4,42.7,30.05,North,0,0.0,-999.0,87,0.11,,,0.03,homie,2013-12-07 17:45:00,
2013-12-07 09:50:00,46.2,42.5,30.04,North,0,0.0,-999.0,87,0.11,,,0.04,homie,2013-12-07 17:50:00,
2013-12-07 09:55:00,45.9,42.5,30.05,North,0,0.0,-999.0,88,0.16,,,0.06,homie,2013-12-07 17:55:00,
2013-12-07 10:00:00,45.7,42.6,30.05,North,0,0.0,-999.0,89,0.11,,,0.06,homie,2013-12-07 18:00:00,
2013-12-07 10:05:00,45.7,42.6,30.04,North,0,0.0,-999.0,89,0.10,,,0.07,homie,2013-12-07 18:05:00,
2013-12-07 10:10:00,45.7,43.2,30.03,North,0,0.0,-999.0,91,0.12,,,0.08,homie,2013-12-07 18:10:00,
2013-12-07 10:15:00,45.9,43.4,30.03,North,0,0.0,-999.0,91,0.06,,,0.08,homie,2013-12-07 18:15:00,
2013-12-07 10:20:00,45.7,43.2,30.03,West,265,1.0,-999.0,91,0.04,,,0.08,homie,2013-12-07 18:20:00,
2013-12-07 10:25:00,45.8,43.3,30.03,SW,224,1.0,-999.0,91,0.00,,,0.08,homie,2013-12-07 18:25:00,
2013-12-07 10:30:00,45.8,43.3,30.03,North,0,0.0,-999.0,91,0.00,,,0.08,homie,2013-12-07 18:30:00,
2013-12-07 10:35:00,45.9,43.4,30.03,North,0,0.0,-999.0,91,0.00,,,0.08,homie,2013-12-07 18:35:00,
2013-12-07 10:40:00,45.9,43.4,30.03,NW,312,1.0,-999.0,91,0.00,,,0.08,homie,2013-12-07 18:40:00,
2013-12-07 10:45:00,46.0,43.5,30.02,SW,215,1.0,-999.0,91,0.00,,,0.08,homie,2013-12-07 18:45:00,
2013-12-07 10:50:00,46.0,43.5,30.02,WSW,239,1.0,-999.0,91,0.00,,,0.08,homie,2013-12-07 18:50:00,
2013-12-07 10:55:00,46.1,43.9,30.02,North,0,0.0,-999.0,92,0.00,,,0.08,homie,2013-12-07 18:55:00,
2013-12-07 11:00:00,46.0,43.5,30.02,WNW,295,1.0,-999.0,91,0.00,,,0.09,homie,2013-12-07 19:00:00,
2013-12-07 11:05:00,46.1,43.9,30.02,North,0,0.0,-999.0,92,0.00,,,0.09,homie,2013-12-07 19:05:00,
2013-12-07 11:10:00,46.1,43.9,30.02,North,0,0.0,-999.0,92,0.00,,,0.09,homie,2013-12-07 19:10:00,
2013-12-07 11:15:00,46.2,44.0,30.01,North,0,0.0,-999.0,92,0.00,,,0.09,homie,2013-12-07 19:15:00,
2013-12-07 11:20:00,46.4,44.2,30.01,North,0,0.0,-999.0,92,0.00,,,0.09,homie,2013-12-07 19:20:00,
2013-12-07 11:25:00,46.4,44.2,30.00,North,0,0.0,-999.0,92,0.00,,,0.09,homie,2013-12-07 19:25:00,
2013-12-07 11:30:00,46.6,44.4,30.00,North,0,0.0,-999.0,92,0.00,,,0.09,homie,2013-12-07 19:30:00,
2013-12-07 11:35:00,46.6,44.1,30.00,NNE,13,1.0,-999.0,91,0.00,,,0.09,homie,2013-12-07 19:35:00,
2013-12-07 11:40:00,46.8,44.6,29.99,North,0,0.0,-999.0,92,0.00,,,0.10,homie,2013-12-07 19:40:00,
2013-12-07 11:45:00,46.8,44.6,29.98,SW,235,1.0,-999.0,92,0.00,,,0.10,homie,2013-12-07 19:45:00,
2013-12-07 11:50:00,47.2,45.0,29.98,WSW,251,1.0,-999.0,92,0.00,,,0.10,homie,2013-12-07 19:50:00,
2013-12-07 11:55:00,47.2,45.0,29.98,North,0,0.0,-999.0,92,0.00,,,0.10,homie,2013-12-07 19:55:00,
2013-12-07 12:00:00,47.2,44.7,29.98,North,0,0.0,-999.0,91,0.00,,,0.10,homie,2013-12-07 20:00:00,
2013-12-07 12:05:00,47.5,45.3,29.98,North,0,0.0,-999.0,92,0.00,,,0.10,homie,2013-12-07 20:05:00,
2013-12-07 12:10:00,47.4,44.6,29.97,SSW,207,1.0,-999.0,90,0.00,,,0.10,homie,2013-12-07 20:10:00,
2013-12-07 12:15:00,47.8,45.0,29.96,WSW,243,1.0,-999.0,90,0.00,,,0.10,homie,2013-12-07 20:15:00,
2013-12-07 12:20:00,48.3,45.5,29.96,North,0,0.0,-999.0,90,0.00,,,0.10,homie,2013-12-07 20:20:00,
2013-12-07 12:25:00,48.8,46.0,29.96,North,0,0.0,-999.0,90,0.00,,,0.10,homie,2013-12-07 20:25:00,
2013-12-07 12:30:00,49.4,46.3,29.96,North,0,0.0,-999.0,89,0.00,,,0.10,homie,2013-12-07 20:30:00,
2013-12-07 12:35:00,49.6,46.2,29.95,North,0,0.0,-999.0,88,0.00,,,0.10,homie,2013-12-07 20:35:00,
2013-12-07 12:40:00,50.1,47.0,29.95,North,0,0.0,-999.0,89,0.00,,,0.10,homie,2013-12-07 20:40:00,
2013-12-07 12:45:00,50.3,46.9,29.95,North,0,0.0,-999.0,88,0.00,,,0.10,homie,2013-12-07 20:45:00,
2013-12-07 12:50:00,50.4,46.7,29.95,North,0,0.0,-999.0,87,0.00,,,0.10,homie,2013-12-07 20:50:00,
2013-12-07 12:55:00,50.3,46.9,29.94,North,0,0.0,-999.0,88,0.00,,,0.10,homie,2013-12-07 20:55:00,
2013-12-07 13:00:00,50.3,46.6,29.94,North,350,1.0,-999.0,87,0.00,,,0.10,homie,2013-12-07 21:00:00,
2013-12-07 13:05:00,50.4,46.7,29.94,NNE,12,1.0,-999.0,87,0.00,,,0.10,homie,2013-12-07 21:05:00,
2013-12-07 13:10:00,50.7,47.0,29.94,North,8,1.0,-999.0,87,0.00,,,0.10,homie,2013-12-07 21:10:00,
2013-12-07 13:15:00,50.8,46.7,29.94,North,0,0.0,-999.0,86,0.00,,,0.10,homie,2013-12-07 21:15:00,
2013-12-07 13:20:00,51.0,46.9,29.94,North,0,0.0,-999.0,86,0.00,,,0.10,homie,2013-12-07 21:20:00,
2013-12-07 13:25:00,50.9,46.8,29.94,North,0,0.0,-999.0,86,0.00,,,0.10,homie,2013-12-07 21:25:00,
2013-12-07 13:30:00,50.8,46.7,29.93,South,183,1.0,-999.0,86,0.00,,,0.10,homie,2013-12-07 21:30:00,
2013-12-07 13:35:00,50.9,47.1,29.93,North,0,0.0,-999.0,87,0.00,,,0.10,homie,2013-12-07 21:35:00,
2013-12-07 13:40:00,51.0,46.9,29.93,North,0,0.0,-999.0,86,0.00,,,0.10,homie,2013-12-07 21:40:00,
2013-12-07 13:45:00,50.9,46.8,29.93,North,5,1.0,-999.0,86,0.00,,,0.10,homie,2013-12-07 21:45:00,
2013-12-07 13:50:00,50.9,46.5,29.94,North,0,0.0,-999.0,85,0.00,,,0.10,homie,2013-12-07 21:50:00,
2013-12-07 13:55:00,50.7,46.6,29.94,North,0,0.0,-999.0,86,0.00,,,0.10,homie,2013-12-07 21:55:00,
2013-12-07 14:00:00,50.7,47.0,29.94,North,0,0.0,-999.0,87,0.00,,,0.10,homie,2013-12-07 22:00:00,
2013-12-07 14:05:00,50.7,47.0,29.93,North,0,0.0,-999.0,87,0.00,,,0.10,homie,2013-12-07 22:05:00,
2013-12-07 14:10:00,50.9,47.5,29.93,North,0,0.0,-999.0,88,0.00,,,0.10,homie,2013-12-07 22:10:00,
2013-12-07 14:15:00,51.3,47.5,29.93,North,357,1.0,-999.0,87,0.00,,,0.10,homie,2013-12-07 22:15:00,
2013-12-07 14:20:00,51.0,46.9,29.93,NNE,22,1.0,-999.0,86,0.00,,,0.10,homie,2013-12-07 22:20:00,
2013-12-07 14:25:00,50.7,46.6,29.93,NNE,13,2.0,-999.0,86,0.00,,,0.10,homie,2013-12-07 22:25:00,
2013-12-07 14:30:00,50.2,46.5,29.93,WNW,285,2.0,-999.0,87,0.00,,,0.10,homie,2013-12-07 22:30:00,
2013-12-07 14:35:00,50.0,46.6,29.94,North,357,1.0,-999.0,88,0.00,,,0.10,homie,2013-12-07 22:35:00,
2013-12-07 14:40:00,49.9,46.2,29.94,North,0,0.0,-999.0,87,0.00,,,0.10,homie,2013-12-07 22:40:00,
2013-12-07 14:45:00,49.8,46.4,29.94,North,0,0.0,-999.0,88,0.00,,,0.10,homie,2013-12-07 22:45:00,
2013-12-07 14:50:00,49.7,46.3,29.94,North,0,0.0,-999.0,88,0.00,,,0.10,homie,2013-12-07 22:50:00,
2013-12-07 14:55:00,49.7,46.3,29.94,North,0,0.0,-999.0,88,0.00,,,0.10,homie,2013-12-07 22:55:00,
2013-12-07 15:00:00,49.6,46.2,29.94,North,0,0.0,-999.0,88,0.00,,,0.10,homie,2013-12-07 23:00:00,
2013-12-07 15:05:00,49.6,46.2,29.94,North,0,0.0,-999.0,88,0.00,,,0.10,homie,2013-12-07 23:05:00,
2013-12-07 15:10:00,49.6,46.2,29.93,North,0,0.0,-999.0,88,0.00,,,0.10,homie,2013-12-07 23:10:00,
2013-12-07 15:15:00,49.6,46.2,29.93,South,189,1.0,-999.0,88,0.00,,,0.10,homie,2013-12-07 23:15:00,
2013-12-07 15:20:00,49.6,46.2,29.93,West,274,1.0,-999.0,88,0.00,,,0.10,homie,2013-12-07 23:20:00,
2013-12-07 15:25:00,49.5,46.1,29.93,North,0,0.0,-999.0,88,0.00,,,0.10,homie,2013-12-07 23:25:00,
2013-12-07 15:30:00,49.5,46.1,29.93,North,0,0.0,-999.0,88,0.00,,,0.10,homie,2013-12-07 23:30:00,
2013-12-07 15:35:00,49.4,46.0,29.93,North,0,0.0,-999.0,88,0.00,,,0.10,homie,2013-12-07 23:35:00,
2013-12-07 15:40:00,49.3,45.9,29.93,North,0,0.0,-999.0,88,0.00,,,0.10,homie,2013-12-07 23:40:00,
2013-12-07 15:45:00,49.1,45.7,29.93,SW,234,1.0,-999.0,88,0.00,,,0.10,homie,2013-12-07 23:45:00,
2013-12-07 15:50:00,49.0,45.6,29.93,North,358,1.0,-999.0,88,0.00,,,0.10,homie,2013-12-07 23:50:00,
2013-12-07 15:55:00,48.9,45.5,29.94,North,0,0.0,-999.0,88,0.00,,,0.10,homie,2013-12-07 23:55:00,
2013-12-07 16:00:00,48.9,45.5,29.94,North,0,0.0,-999.0,88,0.00,,,0.10,homie,2013-12-08 00:00:00,
2013-12-07 16:05:00,48.8,45.4,29.94,North,0,0.0,-999.0,88,0.00,,,0.10,homie,2013-12-08 00:05:00,
2013-12-07 16:10:00,48.8,45.4,29.94,North,0,0.0,-999.0,88,0.00,,,0.10,homie,2013-12-08 00:10:00,
2013-12-07 16:15:00,48.8,45.7,29.93,North,0,0.0,-999.0,89,0.00,,,0.10,homie,2013-12-08 00:15:00,
2013-12-07 16:20:00,48.8,45.7,29.93,North,0,0.0,-999.0,89,0.00,,,0.10,homie,2013-12-08 00:20:00,
2013-12-07 16:25:00,48.7,45.6,29.93,North,0,0.0,-999.0,89,0.00,,,0.10,homie,2013-12-08 00:25:00,
2013-12-07 16:30:00,48.7,45.3,29.93,North,0,0.0,-999.0,88,0.00,,,0.10,homie,2013-12-08 00:30:00,
2013-12-07 16:35:00,48.6,45.2,29.93,North,0,0.0,-999.0,88,0.00,,,0.10,homie,2013-12-08 00:35:00,
2013-12-07 16:40:00,48.6,45.2,29.93,North,0,0.0,-999.0,88,0.00,,,0.10,homie,2013-12-08 00:40:00,
2013-12-07 16:45:00,48.5,45.1,29.94,North,0,0.0,-999.0,88,0.00,,,0.10,homie,2013-12-08 00:45:00,
2013-12-07 16:50:00,48.5,45.1,29.94,North,0,0.0,-999.0,88,0.00,,,0.10,homie,2013-12-08 00:50:00,
2013-12-07 16:55:00,48.4,45.0,29.94,North,0,0.0,-999.0,88,0.00,,,0.10,homie,2013-12-08 00:55:00,
2013-12-07 17:00:00,48.3,45.2,29.94,North,0,0.0,-999.0,89,0.00,,,0.10,homie,2013-12-08 01:00:00,
2013-12-07 17:05:00,48.1,45.0,29.94,North,0,0.0,-999.0,89,0.00,,,0.10,homie,2013-12-08 01:05:00,
2013-12-07 17:10:00,48.0,44.9,29.94,North,0,0.0,-999.0,89,0.00,,,0.10,homie,2013-12-08 01:10:00,
2013-12-07 17:15:00,48.0,45.2,29.94,North,0,0.0,-999.0,90,0.00,,,0.10,homie,2013-12-08 01:15:00,
2013-12-07 17:20:00,47.8,45.0,29.94,North,0,0.0,-999.0,90,0.00,,,0.10,homie,2013-12-08 01:20:00,
2013-12-07 17:25:00,47.6,44.8,29.95,North,0,0.0,-999.0,90,0.00,,,0.10,homie,2013-12-08 01:25:00,
2013-12-07 17:30:00,47.4,44.6,29.95,North,0,0.0,-999.0,90,0.00,,,0.10,homie,2013-12-08 01:30:00,
2013-12-07 17:35:00,47.3,44.8,29.95,North,0,0.0,-999.0,91,0.00,,,0.10,homie,2013-12-08 01:35:00,
2013-12-07 17:40:00,47.4,44.6,29.95,North,0,0.0,-999.0,90,0.00,,,0.10,homie,2013-12-08 01:40:00,
2013-12-07 17:45:00,47.4,44.6,29.96,North,0,0.0,-999.0,90,0.00,,,0.10,homie,2013-12-08 01:45:00,
2013-12-07 17:50:00,47.4,44.6,29.96,North,0,0.0,-999.0,90,0.00,,,0.10,homie,2013-12-08 01:50:00,
2013-12-07 17:55:00,47.3,44.5,29.96,North,0,0.0,-999.0,90,0.00,,,0.10,homie,2013-12-08 01:55:00,
2013-12-07 18:00:00,47.2,44.4,29.97,North,0,0.0,-999.0,90,0.00,,,0.10,homie,2013-12-08 02:00:00,
2013-12-07 18:05:00,47.0,44.2,29.97,North,0,0.0,-999.0,90,0.00,,,0.10,homie,2013-12-08 02:05:00,
2013-12-07 18:10:00,46.8,44.3,29.98,North,0,0.0,-999.0,91,0.00,,,0.10,homie,2013-12-08 02:10:00,
2013-12-07 18:15:00,46.7,44.2,29.98,North,0,0.0,-999.0,91,0.00,,,0.10,homie,2013-12-08 02:15:00,
2013-12-07 18:20:00,46.5,44.0,29.98,North,0,0.0,-999.0,91,0.00,,,0.10,homie,2013-12-08 02:20:00,
2013-12-07 18:25:00,46.4,43.9,29.99,North,0,0.0,-999.0,91,0.00,,,0.10,homie,2013-12-08 02:25:00,
2013-12-07 18:30:00,46.2,44.0,29.98,North,0,0.0,-999.0,92,0.00,,,0.10,homie,2013-12-08 02:30:00,
2013-12-07 18:35:00,46.1,43.9,29.98,North,0,0.0,-999.0,92,0.00,,,0.10,homie,2013-12-08 02:35:00,
2013-12-07 18:40:00,45.9,43.7,29.98,North,0,0.0,-999.0,92,0.00,,,0.10,homie,2013-12-08 02:40:00,
2013-12-07 18:45:00,45.8,43.6,29.99,North,0,0.0,-999.0,92,0.00,,,0.10,homie,2013-12-08 02:45:00,
2013-12-07 18:50:00,45.6,43.4,29.99,North,0,0.0,-999.0,92,0.00,,,0.10,homie,2013-12-08 02:50:00,
2013-12-07 18:55:00,45.4,43.2,29.99,North,0,0.0,-999.0,92,0.00,,,0.10,homie,2013-12-08 02:55:00,
2013-12-07 19:00:00,44.9,42.4,29.99,North,0,0.0,-999.0,91,0.00,,,0.10,homie,2013-12-08 03:00:00,
2013-12-07 19:05:00,44.5,41.7,29.99,North,0,0.0,-999.0,90,0.00,,,0.10,homie,2013-12-08 03:05:00,
2013-12-07 19:10:00,44.5,42.0,29.99,North,0,0.0,-999.0,91,0.00,,,0.10,homie,2013-12-08 03:10:00,
2013-12-07 19:15:00,44.4,41.6,29.98,North,0,0.0,-999.0,90,0.00,,,0.10,homie,2013-12-08 03:15:00,
2013-12-07 19:20:00,44.2,41.5,29.99,North,0,0.0,-999.0,90,0.00,,,0.10,homie,2013-12-08 03:20:00,
2013-12-07 19:25:00,44.2,41.5,29.99,North,0,0.0,-999.0,90,0.00,,,0.10,homie,2013-12-08 03:25:00,
2013-12-07 19:30:00,44.2,41.5,29.99,North,0,0.0,-999.0,90,0.00,,,0.10,homie,2013-12-08 03:30:00,
2013-12-07 19:35:00,43.9,41.2,29.99,North,0,0.0,-999.0,90,0.00,,,0.10,homie,2013-12-08 03:35:00,
2013-12-07 19:40:00,43.7,41.0,29.99,North,0,0.0,-999.0,90,0.00,,,0.10,homie,2013-12-08 03:40:00,
2013-12-07 19:45:00,43.7,41.0,29.99,North,0,0.0,-999.0,90,0.00,,,0.10,homie,2013-12-08 03:45:00,
2013-12-07 19:50:00,43.5,40.8,30.00,North,0,0.0,-999.0,90,0.00,,,0.10,homie,2013-12-08 03:50:00,
2013-12-07 19:55:00,43.4,40.7,30.00,North,0,0.0,-999.0,90,0.00,,,0.10,homie,2013-12-08 03:55:00,
2013-12-07 20:00:00,43.3,40.3,29.99,North,0,0.0,-999.0,89,0.00,,,0.10,homie,2013-12-08 04:00:00,
2013-12-07 20:05:00,43.2,39.9,29.99,North,0,0.0,-999.0,88,0.00,,,0.10,homie,2013-12-08 04:05:00,
2013-12-07 20:10:00,43.3,39.4,30.00,North,0,0.0,-999.0,86,0.00,,,0.10,homie,2013-12-08 04:10:00,
2013-12-07 20:15:00,43.3,38.5,29.99,North,0,0.0,-999.0,83,0.00,,,0.10,homie,2013-12-08 04:15:00,
2013-12-07 20:21:00,43.4,37.0,30.00,North,0,0.0,-999.0,78,0.00,,,0.10,homie,2013-12-08 04:21:00,
2013-12-07 20:26:00,43.8,35.0,29.99,North,0,0.0,-999.0,71,0.00,,,0.10,homie,2013-12-08 04:26:00,
2013-12-07 20:31:00,44.5,35.3,29.99,SSW,194,1.0,-999.0,70,0.00,,,0.10,homie,2013-12-08 04:31:00,
2013-12-07 20:36:00,44.7,34.0,30.00,SSW,205,1.0,-999.0,66,0.00,,,0.10,homie,2013-12-08 04:36:00,
2013-12-07 20:41:00,44.7,34.4,29.99,SSW,207,1.0,-999.0,67,0.00,,,0.10,homie,2013-12-08 04:41:00,
2013-12-07 20:46:00,44.9,33.5,30.00,SW,224,1.0,-999.0,64,0.00,,,0.10,homie,2013-12-08 04:46:00,
2013-12-07 20:51:00,45.1,33.3,30.00,SW,214,2.0,-999.0,63,0.00,,,0.10,homie,2013-12-08 04:51:00,
2013-12-07 20:56:00,44.9,33.9,29.99,SW,214,1.0,-999.0,65,0.00,,,0.10,homie,2013-12-08 04:56:00,
2013-12-07 21:01:00,44.7,33.7,30.00,SSW,210,1.0,-999.0,65,0.00,,,0.10,homie,2013-12-08 05:01:00,
2013-12-07 21:06:00,44.6,33.2,30.00,SSW,207,1.0,-999.0,64,0.00,,,0.10,homie,2013-12-08 05:06:00,
2013-12-07 21:11:00,44.4,31.8,30.00,SSW,206,1.0,-999.0,61,0.00,,,0.10,homie,2013-12-08 05:11:00,
2013-12-07 21:16:00,44.4,30.1,30.00,North,0,0.0,-999.0,57,0.00,,,0.10,homie,2013-12-08 05:16:00,
2013-12-07 21:21:00,44.7,30.9,29.99,North,0,0.0,-999.0,58,0.00,,,0.10,homie,2013-12-08 05:21:00,
2013-12-07 21:27:00,44.6,30.8,30.00,North,0,0.0,-999.0,58,0.00,,,0.10,homie,2013-12-08 05:27:00,
2013-12-07 21:32:00,44.4,31.4,30.00,North,0,0.0,-999.0,60,0.00,,,0.10,homie,2013-12-08 05:32:00,
2013-12-07 21:37:00,44.0,30.6,30.00,North,0,0.0,-999.0,59,0.00,,,0.10,homie,2013-12-08 05:37:00,
2013-12-07 21:42:00,43.7,30.3,30.00,North,0,0.0,-999.0,59,0.00,,,0.10,homie,2013-12-08 05:42:00,
2013-12-07 21:46:00,43.5,30.5,30.00,North,0,0.0,-999.0,60,0.00,,,0.10,homie,2013-12-08 05:46:00,
2013-12-07 21:51:00,43.2,30.7,30.01,North,0,0.0,-999.0,61,0.00,,,0.10,homie,2013-12-08 05:51:00,
2013-12-07 21:56:00,42.8,30.7,30.01,North,0,0.0,-999.0,62,0.00,,,0.10,homie,2013-12-08 05:56:00,
2013-12-07 22:01:00,42.2,30.1,30.00,North,0,0.0,-999.0,62,0.00,,,0.10,homie,2013-12-08 06:01:00,
2013-12-07 22:06:00,41.9,29.8,30.01,North,0,0.0,-999.0,62,0.00,,,0.10,homie,2013-12-08 06:06:00,
2013-12-07 22:11:00,41.8,30.1,30.02,North,0,0.0,-999.0,63,0.00,,,0.10,homie,2013-12-08 06:11:00,
2013-12-07 22:16:00,41.5,31.7,30.02,North,0,0.0,-999.0,68,0.00,,,0.10,homie,2013-12-08 06:16:00,
2013-12-07 22:21:00,41.2,31.5,30.02,North,0,0.0,-999.0,68,0.00,,,0.10,homie,2013-12-08 06:21:00,
2013-12-07 22:26:00,41.2,31.8,30.02,North,0,0.0,-999.0,69,0.00,,,0.10,homie,2013-12-08 06:26:00,
2013-12-07 22:31:00,41.3,31.9,30.02,North,0,0.0,-999.0,69,0.00,,,0.10,homie,2013-12-08 06:31:00,
2013-12-07 22:36:00,41.1,31.7,30.02,North,0,0.0,-999.0,69,0.00,,,0.10,homie,2013-12-08 06:36:00,
2013-12-07 22:41:00,40.8,31.1,30.02,North,0,0.0,-999.0,68,0.00,,,0.10,homie,2013-12-08 06:41:00,
2013-12-07 22:46:00,40.6,30.1,30.03,North,0,0.0,-999.0,66,0.00,,,0.10,homie,2013-12-08 06:46:00,
2013-12-07 22:51:00,41.1,30.6,30.03,North,0,0.0,-999.0,66,0.00,,,0.10,homie,2013-12-08 06:51:00,
2013-12-07 22:56:00,40.9,30.1,30.03,North,0,0.0,-999.0,65,0.00,,,0.10,homie,2013-12-08 06:56:00,
2013-12-07 23:01:00,40.8,31.1,30.04,North,0,0.0,-999.0,68,0.00,,,0.10,homie,2013-12-08 07:01:00,
2013-12-07 23:06:00,40.6,32.0,30.04,North,0,0.0,-999.0,71,0.00,,,0.10,homie,2013-12-08 07:06:00,
2013-12-07 23:11:00,40.3,31.3,30.04,North,0,0.0,-999.0,70,0.00,,,0.10,homie,2013-12-08 07:11:00,
2013-12-07 23:16:00,40.0,31.4,30.04,North,0,0.0,-999.0,71,0.00,,,0.10,homie,2013-12-08 07:16:00,
2013-12-07 23:21:00,39.8,31.5,30.04,North,0,0.0,-999.0,72,0.00,,,0.10,homie,2013-12-08 07:21:00,
2013-12-07 23:26:00,39.6,31.7,30.04,North,0,0.0,-999.0,73,0.00,,,0.10,homie,2013-12-08 07:26:00,
2013-12-07 23:31:00,39.5,31.2,30.04,North,0,0.0,-999.0,72,0.00,,,0.10,homie,2013-12-08 07:31:00,
2013-12-07 23:36:00,39.3,31.0,30.03,North,0,0.0,-999.0,72,0.00,,,0.10,homie,2013-12-08 07:36:00,
2013-12-07 23:41:00,39.0,31.4,30.04,North,0,0.0,-999.0,74,0.00,,,0.10,homie,2013-12-08 07:41:00,
2013-12-07 23:46:00,38.9,31.7,30.03,North,0,0.0,-999.0,75,0.00,,,0.10,homie,2013-12-08 07:46:00,
2013-12-07 23:51:00,38.9,31.3,30.04,North,0,0.0,-999.0,74,0.00,,,0.10,homie,2013-12-08 07:51:00,
2013-12-07 23:56:00,39.1,30.9,30.04,North,0,0.0,-999.0,72,0.00,,,0.10,homie,2013-12-08 07:56:00,